Wetterdaten: Samstag, 21.11.2015
Datum Zeit Auen-Temp. Temp gefhlt Luftfeuchte Luftdruck Regen Wind Richtung Richtung Taupunkt Windben
21.11.2015 00:00 0,6 C 0,0 C 90 % 1000,8 hPa 0,0 mm 5,7 km/h (1 Bft) SW 225 -0,8 C 12,7 km/h (3 Bft)
21.11.2015 00:05 0,6 C 0,0 C 90 % 1000,8 hPa 1,4 mm 6,2 km/h (2 Bft) W-SW 247 -0,8 C 9,1 km/h (2 Bft)
21.11.2015 00:10 0,7 C 0,0 C 90 % 1000,8 hPa 0,0 mm 6,7 km/h (2 Bft) SW 225 -0,7 C 9,3 km/h (2 Bft)
21.11.2015 00:15 0,7 C 0,0 C 91 % 1000,8 hPa 0,7 mm 6,5 km/h (2 Bft) SW 225 -0,6 C 8,0 km/h (2 Bft)
21.11.2015 00:20 0,7 C 0,0 C 91 % 1000,8 hPa 0,0 mm 6,5 km/h (2 Bft) S-SW 202 -0,6 C 9,6 km/h (2 Bft)
21.11.2015 00:25 0,8 C 0,2 C 91 % 1000,8 hPa 0,7 mm 6,5 km/h (2 Bft) SW 225 -0,5 C 10,1 km/h (2 Bft)
21.11.2015 00:30 0,8 C 0,1 C 91 % 1000,5 hPa 0,0 mm 7,0 km/h (2 Bft) W-SW 247 -0,5 C 6,5 km/h (2 Bft)
21.11.2015 00:35 0,8 C 0,1 C 91 % 1000,5 hPa 0,0 mm 7,3 km/h (2 Bft) SW 225 -0,5 C 11,7 km/h (2 Bft)
21.11.2015 00:40 0,9 C 0,2 C 91 % 1000,5 hPa 0,7 mm 7,3 km/h (2 Bft) W-SW 247 -0,4 C 15,3 km/h (3 Bft)
21.11.2015 00:45 1,0 C 0,2 C 91 % 1000,5 hPa 0,0 mm 7,8 km/h (2 Bft) SW 225 -0,3 C 11,4 km/h (2 Bft)
21.11.2015 00:50 1,0 C 0,4 C 91 % 1000,4 hPa 0,7 mm 6,7 km/h (2 Bft) S 180 -0,3 C 9,8 km/h (2 Bft)
21.11.2015 00:55 1,1 C 0,4 C 92 % 1000,4 hPa 0,0 mm 6,7 km/h (2 Bft) W-SW 247 -0,1 C 6,5 km/h (2 Bft)
21.11.2015 01:00 1,1 C 0,5 C 92 % 1000,4 hPa 0,7 mm 5,7 km/h (1 Bft) W-SW 247 -0,1 C 6,5 km/h (2 Bft)
21.11.2015 01:05 1,1 C 0,6 C 92 % 1000,4 hPa 0,0 mm 5,2 km/h (1 Bft) S 180 -0,1 C 4,4 km/h (1 Bft)
21.11.2015 01:10 1,1 C 0,6 C 92 % 1000,1 hPa 0,7 mm 5,7 km/h (1 Bft) S 180 -0,1 C 8,8 km/h (2 Bft)
21.11.2015 01:15 1,1 C 0,7 C 92 % 1000,1 hPa 0,0 mm 4,7 km/h (1 Bft) W-SW 247 -0,1 C 6,7 km/h (2 Bft)
21.11.2015 01:20 1,2 C 0,9 C 92 % 1000,1 hPa 0,7 mm 2,8 km/h (1 Bft) W 270 0,0 C 2,6 km/h (1 Bft)
21.11.2015 01:25 1,1 C 0,8 C 92 % 1000,1 hPa 0,0 mm 2,3 km/h (1 Bft) W-SW 247 -0,1 C 3,9 km/h (1 Bft)
21.11.2015 01:30 1,2 C 0,9 C 92 % 1000,1 hPa 0,7 mm 4,1 km/h (1 Bft) W 270 0,0 C 14,2 km/h (3 Bft)
21.11.2015 01:35 1,3 C 0,7 C 92 % 1000,1 hPa 0,0 mm 5,7 km/h (1 Bft) W-SW 247 0,1 C 7,3 km/h (2 Bft)
21.11.2015 01:40 1,3 C 0,8 C 92 % 1000,1 hPa 0,0 mm 6,0 km/h (2 Bft) W 270 0,1 C 4,1 km/h (1 Bft)
21.11.2015 01:45 1,3 C 0,8 C 92 % 1000,1 hPa 0,7 mm 5,4 km/h (1 Bft) W 270 0,1 C 3,4 km/h (1 Bft)
21.11.2015 01:50 1,2 C 0,9 C 92 % 999,9 hPa 0,0 mm 4,1 km/h (1 Bft) W-SW 247 0,0 C 5,7 km/h (1 Bft)
21.11.2015 01:55 1,2 C 1,0 C 92 % 999,9 hPa 0,7 mm 3,6 km/h (1 Bft) W-SW 247 0,0 C 3,9 km/h (1 Bft)
21.11.2015 02:00 1,2 C 1,0 C 92 % 999,9 hPa 0,0 mm 2,8 km/h (1 Bft) W 270 0,0 C 0,0 km/h (0 Bft)
21.11.2015 02:05 1,2 C 1,0 C 92 % 999,9 hPa 0,0 mm 2,3 km/h (1 Bft) W-SW 247 0,0 C 2,6 km/h (1 Bft)
21.11.2015 02:10 1,4 C 1,2 C 92 % 999,5 hPa 0,0 mm 2,8 km/h (1 Bft) W-SW 247 0,2 C 3,1 km/h (1 Bft)
21.11.2015 02:15 1,4 C 1,2 C 92 % 999,5 hPa 0,0 mm 3,6 km/h (1 Bft) SW 225 0,2 C 7,0 km/h (2 Bft)
21.11.2015 02:20 1,5 C 1,1 C 92 % 999,5 hPa 0,7 mm 4,9 km/h (1 Bft) SW 225 0,3 C 11,4 km/h (2 Bft)
21.11.2015 02:25 1,6 C 1,2 C 92 % 999,5 hPa 0,0 mm 6,0 km/h (2 Bft) W-SW 247 0,4 C 8,8 km/h (2 Bft)
21.11.2015 02:30 1,7 C 1,4 C 92 % 999,3 hPa 0,0 mm 4,7 km/h (1 Bft) W 270 0,5 C 4,4 km/h (1 Bft)
21.11.2015 02:35 1,6 C 1,5 C 92 % 999,3 hPa 0,0 mm 2,8 km/h (1 Bft) W-SW 247 0,4 C 0,0 km/h (0 Bft)
21.11.2015 02:40 1,6 C 1,5 C 92 % 999,3 hPa 0,0 mm 1,3 km/h (1 Bft) NW 315 0,4 C 5,4 km/h (1 Bft)
21.11.2015 02:45 1,6 C 1,5 C 92 % 999,3 hPa 0,0 mm 1,0 km/h (0 Bft) W-NW 292 0,4 C 6,2 km/h (2 Bft)
21.11.2015 02:50 1,6 C 1,5 C 92 % 999,1 hPa 0,7 mm 3,4 km/h (1 Bft) NW 315 0,4 C 7,8 km/h (2 Bft)
21.11.2015 02:55 1,4 C 1,0 C 92 % 999,1 hPa 0,0 mm 6,2 km/h (2 Bft) W 270 0,2 C 20,5 km/h (4 Bft)
21.11.2015 03:00 1,2 C 0,5 C 92 % 999,1 hPa 0,0 mm 8,3 km/h (2 Bft) W 270 0,0 C 5,4 km/h (1 Bft)
21.11.2015 03:05 1,1 C 0,4 C 92 % 999,1 hPa 0,0 mm 8,5 km/h (2 Bft) W-SW 247 -0,1 C 12,4 km/h (3 Bft)
21.11.2015 03:10 1,0 C 0,4 C 92 % 999,0 hPa 0,0 mm 7,3 km/h (2 Bft) W-SW 247 -0,2 C 17,6 km/h (3 Bft)
21.11.2015 03:15 1,0 C 0,2 C 92 % 999,0 hPa 0,0 mm 8,0 km/h (2 Bft) S-SW 202 -0,2 C 11,9 km/h (2 Bft)
21.11.2015 03:20 1,0 C 0,2 C 92 % 999,0 hPa 0,0 mm 7,8 km/h (2 Bft) W-SW 247 -0,2 C 11,7 km/h (2 Bft)
21.11.2015 03:25 0,9 C 0,2 C 92 % 999,0 hPa 0,7 mm 7,5 km/h (2 Bft) SW 225 -0,2 C 6,7 km/h (2 Bft)
21.11.2015 03:30 0,9 C 0,2 C 92 % 999,0 hPa 0,0 mm 8,0 km/h (2 Bft) S 180 -0,2 C 7,3 km/h (2 Bft)
21.11.2015 03:35 0,9 C 0,3 C 92 % 999,0 hPa 0,0 mm 7,0 km/h (2 Bft) W-SW 247 -0,2 C 6,2 km/h (2 Bft)
21.11.2015 03:40 0,9 C 0,4 C 92 % 999,0 hPa 0,0 mm 6,0 km/h (2 Bft) W 270 -0,2 C 9,3 km/h (2 Bft)
21.11.2015 03:45 1,0 C 0,4 C 92 % 999,0 hPa 0,0 mm 6,5 km/h (2 Bft) W 270 -0,2 C 11,7 km/h (2 Bft)
21.11.2015 03:50 1,1 C 0,3 C 92 % 998,2 hPa 0,0 mm 8,0 km/h (2 Bft) S-SW 202 -0,1 C 8,5 km/h (2 Bft)
21.11.2015 03:55 1,1 C 0,3 C 92 % 998,2 hPa 0,0 mm 8,3 km/h (2 Bft) SW 225 -0,1 C 11,1 km/h (2 Bft)
21.11.2015 04:00 1,3 C 0,4 C 92 % 998,2 hPa 0,0 mm 9,6 km/h (2 Bft) W-SW 247 0,1 C 12,9 km/h (3 Bft)
21.11.2015 04:05 1,3 C 0,3 C 92 % 998,2 hPa 0,0 mm 10,1 km/h (2 Bft) W-SW 247 0,1 C 14,0 km/h (3 Bft)
21.11.2015 04:10 1,2 C 0,5 C 93 % 998,2 hPa 0,0 mm 8,0 km/h (2 Bft) W-NW 292 0,2 C 6,0 km/h (2 Bft)
21.11.2015 04:15 1,2 C 0,6 C 92 % 998,2 hPa 0,0 mm 6,7 km/h (2 Bft) W 270 0,0 C 8,5 km/h (2 Bft)
21.11.2015 04:20 1,2 C 0,7 C 92 % 998,2 hPa 0,0 mm 5,4 km/h (1 Bft) W-SW 247 0,0 C 4,9 km/h (1 Bft)
21.11.2015 04:25 1,2 C 0,7 C 92 % 998,2 hPa 0,0 mm 5,7 km/h (1 Bft) SW 225 0,0 C 5,7 km/h (1 Bft)
21.11.2015 04:30 1,3 C 0,7 C 92 % 997,8 hPa 0,0 mm 6,2 km/h (2 Bft) W-SW 247 0,1 C 10,9 km/h (2 Bft)
21.11.2015 04:35 1,3 C 0,7 C 93 % 997,8 hPa 0,0 mm 6,7 km/h (2 Bft) S-SW 202 0,3 C 6,5 km/h (2 Bft)
21.11.2015 04:40 1,4 C 0,7 C 93 % 997,8 hPa 0,0 mm 7,0 km/h (2 Bft) W-SW 247 0,4 C 9,8 km/h (2 Bft)
21.11.2015 04:45 1,4 C 0,8 C 93 % 997,8 hPa 0,0 mm 6,7 km/h (2 Bft) SW 225 0,4 C 8,5 km/h (2 Bft)
21.11.2015 04:46 1,4 C 0,8 C 93 % 997,8 hPa 0,0 mm 6,7 km/h (2 Bft) SW 225 0,4 C 8,5 km/h (2 Bft)
21.11.2015 04:50 1,5 C 0,9 C 92 % 997,9 hPa 0,0 mm 6,5 km/h (2 Bft) W-SW 247 0,3 C 7,0 km/h (2 Bft)
21.11.2015 04:55 1,5 C 0,9 C 92 % 997,9 hPa 0,0 mm 6,2 km/h (2 Bft) S 180 0,3 C 7,0 km/h (2 Bft)
21.11.2015 05:00 1,6 C 1,0 C 92 % 997,9 hPa 0,0 mm 6,0 km/h (2 Bft) SW 225 0,4 C 5,2 km/h (1 Bft)
21.11.2015 05:05 1,6 C 1,0 C 92 % 997,9 hPa 0,0 mm 6,2 km/h (2 Bft) S-SW 202 0,4 C 4,9 km/h (1 Bft)
21.11.2015 05:10 1,6 C 1,1 C 92 % 997,6 hPa 0,0 mm 5,7 km/h (1 Bft) W-SW 247 0,4 C 7,0 km/h (2 Bft)
21.11.2015 05:15 1,7 C 1,3 C 92 % 997,6 hPa 0,0 mm 5,2 km/h (1 Bft) W-SW 247 0,5 C 8,5 km/h (2 Bft)
21.11.2015 05:20 1,7 C 1,2 C 92 % 997,6 hPa 0,0 mm 5,7 km/h (1 Bft) W-SW 247 0,5 C 10,4 km/h (2 Bft)
21.11.2015 05:25 1,7 C 1,2 C 92 % 997,6 hPa 0,0 mm 6,0 km/h (2 Bft) SW 225 0,5 C 11,7 km/h (2 Bft)
21.11.2015 05:30 1,6 C 1,1 C 91 % 997,7 hPa 0,0 mm 5,7 km/h (1 Bft) SW 225 0,3 C 5,7 km/h (1 Bft)
21.11.2015 05:35 1,5 C 1,0 C 91 % 997,7 hPa 0,7 mm 5,7 km/h (1 Bft) W-SW 247 0,2 C 8,8 km/h (2 Bft)
21.11.2015 05:40 1,4 C 0,9 C 91 % 997,7 hPa 0,0 mm 6,2 km/h (2 Bft) S 180 0,1 C 9,8 km/h (2 Bft)
21.11.2015 05:45 1,4 C 0,8 C 91 % 997,7 hPa 0,0 mm 6,2 km/h (2 Bft) SW 225 0,1 C 5,2 km/h (1 Bft)
21.11.2015 05:50 1,4 C 1,0 C 91 % 997,4 hPa 0,0 mm 4,7 km/h (1 Bft) W-SW 247 0,1 C 6,2 km/h (2 Bft)
21.11.2015 05:55 1,4 C 1,0 C 91 % 997,4 hPa 0,0 mm 4,7 km/h (1 Bft) S 180 0,1 C 8,5 km/h (2 Bft)
21.11.2015 06:00 1,4 C 0,9 C 91 % 997,4 hPa 0,0 mm 5,7 km/h (1 Bft) W-SW 247 0,1 C 4,9 km/h (1 Bft)
21.11.2015 06:05 1,2 C 0,7 C 91 % 997,4 hPa 0,0 mm 5,2 km/h (1 Bft) W-SW 247 -0,1 C 2,8 km/h (1 Bft)
21.11.2015 06:10 1,2 C 0,9 C 91 % 997,6 hPa 0,0 mm 2,8 km/h (1 Bft) W 270 -0,1 C 0,0 km/h (0 Bft)
21.11.2015 06:15 1,1 C 0,9 C 91 % 997,6 hPa 0,0 mm 1,6 km/h (1 Bft) W 270 -0,2 C 0,0 km/h (0 Bft)
21.11.2015 06:20 1,2 C 1,0 C 91 % 997,6 hPa 0,0 mm 1,6 km/h (1 Bft) W-SW 247 -0,1 C 4,4 km/h (1 Bft)
21.11.2015 06:25 1,2 C 1,0 C 91 % 997,6 hPa 0,0 mm 2,6 km/h (1 Bft) SW 225 -0,1 C 4,9 km/h (1 Bft)
21.11.2015 06:30 1,4 C 1,2 C 91 % 997,3 hPa 0,0 mm 4,1 km/h (1 Bft) W 270 0,1 C 0,0 km/h (0 Bft)
21.11.2015 06:35 1,4 C 1,0 C 91 % 997,3 hPa 0,0 mm 5,2 km/h (1 Bft) SW 225 0,1 C 9,3 km/h (2 Bft)
21.11.2015 06:40 1,3 C 1,0 C 91 % 997,3 hPa 0,0 mm 4,4 km/h (1 Bft) W-SW 247 -0,0 C 6,5 km/h (2 Bft)
21.11.2015 06:45 1,3 C 0,8 C 91 % 997,3 hPa 0,0 mm 4,9 km/h (1 Bft) W-SW 247 -0,0 C 4,1 km/h (1 Bft)
21.11.2015 06:50 1,4 C 0,9 C 91 % 997,1 hPa 0,0 mm 5,2 km/h (1 Bft) W-SW 247 0,1 C 4,7 km/h (1 Bft)
21.11.2015 06:55 1,4 C 1,0 C 91 % 997,1 hPa 0,0 mm 4,9 km/h (1 Bft) W-SW 247 0,1 C 6,2 km/h (2 Bft)
21.11.2015 07:00 1,4 C 1,0 C 91 % 997,1 hPa 0,0 mm 5,4 km/h (1 Bft) W-SW 247 0,1 C 6,2 km/h (2 Bft)
21.11.2015 07:05 1,5 C 0,9 C 91 % 997,1 hPa 0,0 mm 6,2 km/h (2 Bft) W-SW 247 0,2 C 7,3 km/h (2 Bft)
21.11.2015 07:10 1,7 C 1,0 C 91 % 997,2 hPa 0,0 mm 7,3 km/h (2 Bft) W-SW 247 0,4 C 13,5 km/h (3 Bft)
21.11.2015 07:15 1,6 C 0,9 C 91 % 997,2 hPa 0,0 mm 7,8 km/h (2 Bft) SW 225 0,3 C 9,1 km/h (2 Bft)
21.11.2015 07:20 1,6 C 0,8 C 91 % 997,2 hPa 0,0 mm 8,3 km/h (2 Bft) W-NW 292 0,3 C 23,8 km/h (4 Bft)
21.11.2015 07:25 1,6 C 0,7 C 91 % 997,2 hPa 0,0 mm 8,5 km/h (2 Bft) O-SO 112 0,3 C 7,5 km/h (2 Bft)
21.11.2015 07:30 1,5 C 0,6 C 91 % 997,1 hPa 0,0 mm 8,3 km/h (2 Bft) W-SW 247 0,2 C 19,2 km/h (3 Bft)
21.11.2015 07:35 1,6 C 0,7 C 91 % 997,1 hPa 0,0 mm 8,3 km/h (2 Bft) SW 225 0,3 C 6,5 km/h (2 Bft)
21.11.2015 07:40 1,6 C 0,7 C 91 % 997,1 hPa 0,0 mm 8,8 km/h (2 Bft) W 270 0,3 C 9,6 km/h (2 Bft)
21.11.2015 07:45 1,6 C 0,7 C 90 % 997,1 hPa 0,0 mm 8,0 km/h (2 Bft) W-SW 247 0,1 C 5,4 km/h (1 Bft)
21.11.2015 07:50 1,6 C 0,8 C 90 % 997,2 hPa 0,0 mm 8,3 km/h (2 Bft) W 270 0,1 C 10,1 km/h (2 Bft)
21.11.2015 07:55 1,6 C 0,6 C 90 % 997,2 hPa 0,0 mm 9,3 km/h (2 Bft) W 270 0,1 C 15,5 km/h (3 Bft)
21.11.2015 08:00 1,6 C 0,9 C 89 % 997,2 hPa 0,0 mm 7,5 km/h (2 Bft) NW 315 -0,0 C 25,4 km/h (4 Bft)
21.11.2015 08:05 1,6 C 0,9 C 89 % 997,2 hPa 0,0 mm 7,3 km/h (2 Bft) W-SW 247 -0,0 C 11,4 km/h (2 Bft)
21.11.2015 08:10 1,7 C 1,1 C 89 % 997,3 hPa 0,0 mm 6,5 km/h (2 Bft) NW 315 0,1 C 6,2 km/h (2 Bft)
21.11.2015 08:15 1,7 C 1,0 C 89 % 997,3 hPa 0,0 mm 7,0 km/h (2 Bft) NW 315 0,1 C 16,3 km/h (3 Bft)
21.11.2015 08:20 1,3 C 0,5 C 89 % 997,3 hPa 0,0 mm 9,6 km/h (2 Bft) N-NW 337 -0,3 C 16,1 km/h (3 Bft)
21.11.2015 08:25 1,1 C 0,4 C 89 % 997,3 hPa 0,0 mm 12,7 km/h (3 Bft) N-NW 337 -0,5 C 13,5 km/h (3 Bft)
21.11.2015 08:30 1,0 C -0,1 C 89 % 997,8 hPa 0,0 mm 11,7 km/h (2 Bft) NW 315 -0,6 C 11,7 km/h (2 Bft)
21.11.2015 08:35 1,0 C 0,1 C 88 % 997,8 hPa 0,0 mm 9,1 km/h (2 Bft) W-SW 247 -0,8 C 4,9 km/h (1 Bft)
21.11.2015 08:40 0,9 C 0,1 C 89 % 997,8 hPa 0,0 mm 7,8 km/h (2 Bft) W 270 -0,7 C 7,5 km/h (2 Bft)
21.11.2015 08:45 0,9 C 0,1 C 89 % 997,8 hPa 0,0 mm 8,5 km/h (2 Bft) W-SW 247 -0,7 C 7,0 km/h (2 Bft)
21.11.2015 08:50 0,9 C 0,0 C 88 % 997,4 hPa 0,0 mm 9,1 km/h (2 Bft) W-NW 292 -0,9 C 7,8 km/h (2 Bft)
21.11.2015 08:55 0,8 C 0,1 C 88 % 997,4 hPa 0,0 mm 8,0 km/h (2 Bft) W 270 -1,0 C 8,3 km/h (2 Bft)
21.11.2015 09:00 0,8 C 0,3 C 88 % 997,4 hPa 0,0 mm 6,5 km/h (2 Bft) W-SW 247 -1,0 C 3,9 km/h (1 Bft)
21.11.2015 09:05 0,8 C 0,2 C 89 % 997,4 hPa 0,0 mm 6,7 km/h (2 Bft) W-NW 292 -0,8 C 14,2 km/h (3 Bft)
21.11.2015 09:10 0,8 C 0,4 C 89 % 997,3 hPa 0,0 mm 5,2 km/h (1 Bft) W-SW 247 -0,8 C 0,0 km/h (0 Bft)
21.11.2015 09:15 0,8 C 0,6 C 89 % 997,3 hPa 0,0 mm 3,6 km/h (1 Bft) W-SW 247 -0,8 C 4,4 km/h (1 Bft)
21.11.2015 09:20 0,8 C 0,6 C 89 % 997,3 hPa 0,0 mm 3,1 km/h (1 Bft) NW 315 -0,8 C 3,1 km/h (1 Bft)
21.11.2015 09:25 0,8 C 0,6 C 89 % 997,3 hPa 0,0 mm 3,6 km/h (1 Bft) W-NW 292 -0,8 C 7,3 km/h (2 Bft)
21.11.2015 09:30 0,7 C 0,4 C 89 % 997,2 hPa 0,0 mm 4,7 km/h (1 Bft) W-NW 292 -0,9 C 7,0 km/h (2 Bft)
21.11.2015 09:35 0,7 C 0,2 C 89 % 997,2 hPa 0,0 mm 5,7 km/h (1 Bft) W-NW 292 -0,9 C 6,2 km/h (2 Bft)
21.11.2015 09:40 0,8 C 0,3 C 89 % 997,2 hPa 0,0 mm 5,7 km/h (1 Bft) W 270 -0,8 C 8,8 km/h (2 Bft)
21.11.2015 09:45 0,8 C 0,1 C 89 % 997,2 hPa 0,0 mm 7,8 km/h (2 Bft) W-SW 247 -0,8 C 15,0 km/h (3 Bft)
21.11.2015 09:50 0,8 C 0,0 C 89 % 997,2 hPa 0,0 mm 9,1 km/h (2 Bft) W-NW 292 -0,8 C 6,7 km/h (2 Bft)
21.11.2015 09:55 0,8 C 0,0 C 89 % 997,2 hPa 0,0 mm 9,3 km/h (2 Bft) W-NW 292 -0,8 C 8,8 km/h (2 Bft)
21.11.2015 10:00 0,8 C 0,0 C 89 % 997,2 hPa 0,7 mm 8,5 km/h (2 Bft) W 270 -0,8 C 12,9 km/h (3 Bft)
21.11.2015 10:05 0,8 C 0,3 C 85 % 997,2 hPa 0,0 mm 8,0 km/h (2 Bft) W-NW 292 -1,4 C 11,7 km/h (2 Bft)
21.11.2015 10:10 0,9 C 0,4 C 85 % 997,1 hPa 0,0 mm 9,1 km/h (2 Bft) W 270 -1,3 C 16,6 km/h (3 Bft)
21.11.2015 10:15 0,9 C 0,4 C 85 % 997,1 hPa 0,0 mm 9,3 km/h (2 Bft) W 270 -1,3 C 9,8 km/h (2 Bft)
21.11.2015 10:21 1,0 C 0,7 C 84 % 997,1 hPa 0,0 mm 9,3 km/h (2 Bft) W 270 -1,4 C 9,8 km/h (2 Bft)
21.11.2015 10:25 1,1 C 0,9 C 84 % 997,1 hPa 0,0 mm 9,8 km/h (2 Bft) W 270 -1,3 C 14,2 km/h (3 Bft)
21.11.2015 10:30 1,2 C 0,9 C 84 % 997,0 hPa 0,0 mm 9,8 km/h (2 Bft) W 270 -1,2 C 12,7 km/h (3 Bft)
21.11.2015 10:35 1,2 C 1,0 C 84 % 997,0 hPa 0,0 mm 9,3 km/h (2 Bft) W 270 -1,2 C 10,4 km/h (2 Bft)
21.11.2015 10:40 1,3 C 1,2 C 84 % 997,0 hPa 0,0 mm 7,8 km/h (2 Bft) W-SW 247 -1,1 C 3,9 km/h (1 Bft)
21.11.2015 10:45 1,3 C 1,1 C 83 % 997,0 hPa 0,0 mm 7,5 km/h (2 Bft) W-NW 292 -1,3 C 10,4 km/h (2 Bft)
21.11.2015 10:47 1,3 C 1,1 C 83 % 997,0 hPa 0,0 mm 7,5 km/h (2 Bft) W-NW 292 -1,3 C 10,4 km/h (2 Bft)
21.11.2015 10:50 1,3 C 1,4 C 83 % 997,0 hPa 0,0 mm 5,2 km/h (1 Bft) NW 315 -1,3 C 2,8 km/h (1 Bft)
21.11.2015 10:55 1,3 C 1,6 C 83 % 997,0 hPa 0,0 mm 4,7 km/h (1 Bft) NW 315 -1,3 C 8,0 km/h (2 Bft)
21.11.2015 11:00 1,4 C 1,7 C 83 % 997,0 hPa 0,0 mm 4,7 km/h (1 Bft) W-NW 292 -1,2 C 6,5 km/h (2 Bft)
21.11.2015 11:05 1,4 C 1,6 C 83 % 997,0 hPa 0,0 mm 5,4 km/h (1 Bft) W-SW 247 -1,2 C 8,5 km/h (2 Bft)
21.11.2015 11:10 1,4 C 2,1 C 82 % 997,0 hPa 0,0 mm 4,1 km/h (1 Bft) W-SW 247 -1,3 C 2,6 km/h (1 Bft)
21.11.2015 11:15 1,4 C 2,2 C 82 % 997,0 hPa 0,0 mm 3,6 km/h (1 Bft) W-SW 247 -1,3 C 5,7 km/h (1 Bft)
21.11.2015 11:20 1,4 C 2,2 C 82 % 997,0 hPa 0,0 mm 2,8 km/h (1 Bft) W-SW 247 -1,3 C 4,1 km/h (1 Bft)
21.11.2015 11:25 1,4 C 2,3 C 82 % 997,0 hPa 0,0 mm 3,9 km/h (1 Bft) SW 225 -1,3 C 6,7 km/h (2 Bft)
21.11.2015 11:30 1,5 C 2,4 C 82 % 996,6 hPa 0,0 mm 3,9 km/h (1 Bft) W 270 -1,2 C 2,6 km/h (1 Bft)
21.11.2015 11:35 1,7 C 2,5 C 82 % 996,6 hPa 0,0 mm 2,8 km/h (1 Bft) NW 315 -1,0 C 2,6 km/h (1 Bft)
21.11.2015 11:40 1,7 C 2,7 C 82 % 996,6 hPa 0,0 mm 3,1 km/h (1 Bft) W 270 -1,0 C 4,1 km/h (1 Bft)
21.11.2015 11:45 1,8 C 2,9 C 82 % 996,6 hPa 0,0 mm 3,6 km/h (1 Bft) W 270 -0,9 C 3,9 km/h (1 Bft)
21.11.2015 11:50 1,9 C 3,0 C 82 % 996,4 hPa 0,0 mm 3,4 km/h (1 Bft) NW 315 -0,8 C 3,4 km/h (1 Bft)
21.11.2015 11:55 1,9 C 3,1 C 81 % 996,4 hPa 0,0 mm 4,4 km/h (1 Bft) W 270 -1,0 C 9,1 km/h (2 Bft)
21.11.2015 12:00 1,9 C 2,8 C 81 % 996,4 hPa 0,0 mm 5,2 km/h (1 Bft) NW 315 -1,0 C 6,2 km/h (2 Bft)
21.11.2015 12:05 1,9 C 2,9 C 81 % 996,4 hPa 0,0 mm 4,9 km/h (1 Bft) SW 225 -1,0 C 8,5 km/h (2 Bft)
21.11.2015 12:10 1,9 C 3,1 C 81 % 996,2 hPa 0,0 mm 4,1 km/h (1 Bft) W-SW 247 -1,0 C 6,2 km/h (2 Bft)
21.11.2015 12:15 2,0 C 3,2 C 80 % 996,2 hPa 0,0 mm 4,4 km/h (1 Bft) W-NW 292 -1,1 C 4,7 km/h (1 Bft)
21.11.2015 12:20 2,2 C 3,2 C 80 % 996,2 hPa 0,0 mm 4,9 km/h (1 Bft) W 270 -0,9 C 6,2 km/h (2 Bft)
21.11.2015 12:25 2,2 C 3,1 C 80 % 996,2 hPa 0,0 mm 5,2 km/h (1 Bft) W-NW 292 -0,9 C 4,9 km/h (1 Bft)
21.11.2015 12:30 2,1 C 2,4 C 79 % 996,0 hPa 0,0 mm 6,7 km/h (2 Bft) W-NW 292 -1,2 C 9,3 km/h (2 Bft)
21.11.2015 12:35 2,1 C 2,3 C 79 % 996,0 hPa 0,0 mm 7,8 km/h (2 Bft) NW 315 -1,2 C 6,7 km/h (2 Bft)
21.11.2015 12:40 2,2 C 2,5 C 79 % 996,0 hPa 0,0 mm 8,3 km/h (2 Bft) W-NW 292 -1,1 C 9,1 km/h (2 Bft)
21.11.2015 12:45 2,4 C 2,8 C 79 % 996,0 hPa 0,0 mm 7,3 km/h (2 Bft) W 270 -0,9 C 5,7 km/h (1 Bft)
21.11.2015 12:50 2,5 C 3,0 C 79 % 995,5 hPa 0,0 mm 7,0 km/h (2 Bft) W-SW 247 -0,8 C 12,2 km/h (2 Bft)
21.11.2015 12:55 2,7 C 3,2 C 79 % 995,5 hPa 0,0 mm 7,3 km/h (2 Bft) W-NW 292 -0,6 C 7,8 km/h (2 Bft)
21.11.2015 13:00 2,5 C 3,2 C 79 % 995,5 hPa 0,0 mm 6,7 km/h (2 Bft) W 270 -0,8 C 6,2 km/h (2 Bft)
21.11.2015 13:05 2,5 C 3,2 C 79 % 995,5 hPa 0,0 mm 6,2 km/h (2 Bft) W-SW 247 -0,8 C 7,3 km/h (2 Bft)
21.11.2015 13:10 2,5 C 3,4 C 79 % 995,5 hPa 0,0 mm 5,4 km/h (1 Bft) W-SW 247 -0,8 C 2,8 km/h (1 Bft)
21.11.2015 13:15 2,5 C 3,7 C 78 % 995,5 hPa 0,0 mm 3,9 km/h (1 Bft) S-SW 202 -0,9 C 5,7 km/h (1 Bft)
21.11.2015 13:20 2,4 C 3,7 C 78 % 995,5 hPa 0,0 mm 3,4 km/h (1 Bft) W 270 -1,0 C 7,8 km/h (2 Bft)
21.11.2015 13:25 2,4 C 3,1 C 78 % 995,5 hPa 0,0 mm 5,4 km/h (1 Bft) W-NW 292 -1,0 C 14,8 km/h (3 Bft)
21.11.2015 13:30 1,9 C 1,6 C 78 % 995,6 hPa 0,0 mm 8,0 km/h (2 Bft) W-NW 292 -1,5 C 10,1 km/h (2 Bft)
21.11.2015 13:35 1,5 C 1,1 C 79 % 995,6 hPa 0,0 mm 7,8 km/h (2 Bft) W 270 -1,7 C 5,2 km/h (1 Bft)
21.11.2015 13:40 1,4 C 1,4 C 79 % 995,6 hPa 0,0 mm 3,4 km/h (1 Bft) N-NO 22 -1,8 C 0,0 km/h (0 Bft)
21.11.2015 13:45 1,4 C 1,5 C 79 % 995,6 hPa 0,0 mm 1,0 km/h (0 Bft) N-NW 337 -1,8 C 0,0 km/h (0 Bft)
21.11.2015 13:50 1,5 C 1,9 C 79 % 995,2 hPa 0,0 mm 1,0 km/h (0 Bft) N-NW 337 -1,7 C 0,0 km/h (0 Bft)
21.11.2015 13:55 1,7 C 2,2 C 80 % 995,2 hPa 0,0 mm 2,6 km/h (1 Bft) NW 315 -1,4 C 6,7 km/h (2 Bft)
21.11.2015 14:00 1,9 C 2,3 C 80 % 995,2 hPa 0,0 mm 4,4 km/h (1 Bft) S 180 -1,2 C 10,1 km/h (2 Bft)
21.11.2015 14:05 2,0 C 1,8 C 80 % 995,2 hPa 0,0 mm 7,0 km/h (2 Bft) NW 315 -1,1 C 9,6 km/h (2 Bft)
21.11.2015 14:10 2,0 C 1,6 C 80 % 995,1 hPa 0,0 mm 7,8 km/h (2 Bft) NW 315 -1,1 C 9,3 km/h (2 Bft)
21.11.2015 14:15 2,0 C 1,8 C 80 % 995,1 hPa 0,0 mm 7,3 km/h (2 Bft) W 270 -1,1 C 12,9 km/h (3 Bft)
21.11.2015 14:20 2,0 C 1,9 C 80 % 995,1 hPa 0,0 mm 7,3 km/h (2 Bft) NW 315 -1,1 C 11,9 km/h (2 Bft)
21.11.2015 14:25 2,0 C 1,9 C 80 % 995,1 hPa 0,0 mm 6,7 km/h (2 Bft) W-NW 292 -1,1 C 4,4 km/h (1 Bft)
21.11.2015 14:30 2,0 C 1,8 C 81 % 995,1 hPa 0,0 mm 6,2 km/h (2 Bft) W 270 -0,9 C 4,9 km/h (1 Bft)
21.11.2015 14:35 2,0 C 2,0 C 81 % 995,1 hPa 0,0 mm 3,6 km/h (1 Bft) W-SW 247 -0,9 C 0,0 km/h (0 Bft)
21.11.2015 14:40 2,0 C 2,1 C 81 % 995,1 hPa 0,0 mm 2,3 km/h (1 Bft) W-SW 247 -0,9 C 4,4 km/h (1 Bft)
21.11.2015 14:45 2,0 C 2,1 C 81 % 995,1 hPa 0,0 mm 3,6 km/h (1 Bft) W-SW 247 -0,9 C 4,9 km/h (1 Bft)
21.11.2015 14:50 2,0 C 2,1 C 81 % 995,1 hPa 0,0 mm 4,7 km/h (1 Bft) W 270 -0,9 C 8,8 km/h (2 Bft)
21.11.2015 14:55 2,0 C 2,0 C 81 % 995,1 hPa 0,0 mm 4,7 km/h (1 Bft) W 270 -0,9 C 7,8 km/h (2 Bft)
21.11.2015 15:00 2,0 C 1,8 C 82 % 995,1 hPa 0,0 mm 5,4 km/h (1 Bft) S-SO 157 -0,7 C 4,9 km/h (1 Bft)
21.11.2015 15:05 1,9 C 1,9 C 81 % 995,1 hPa 0,0 mm 4,7 km/h (1 Bft) SW 225 -1,0 C 0,0 km/h (0 Bft)
21.11.2015 15:10 1,9 C 1,9 C 81 % 995,2 hPa 0,0 mm 3,1 km/h (1 Bft) W-SW 247 -1,0 C 4,9 km/h (1 Bft)
21.11.2015 15:15 1,9 C 1,9 C 81 % 995,2 hPa 0,0 mm 2,6 km/h (1 Bft) W 270 -1,0 C 3,4 km/h (1 Bft)
21.11.2015 15:20 1,9 C 1,9 C 81 % 995,2 hPa 0,0 mm 2,3 km/h (1 Bft) SW 225 -1,0 C 4,4 km/h (1 Bft)
21.11.2015 15:25 1,9 C 1,9 C 81 % 995,2 hPa 0,0 mm 2,1 km/h (1 Bft) SW 225 -1,0 C 6,7 km/h (2 Bft)
21.11.2015 15:30 1,9 C 1,8 C 82 % 995,6 hPa 0,0 mm 3,1 km/h (1 Bft) W 270 -0,8 C 5,2 km/h (1 Bft)
21.11.2015 15:35 1,9 C 1,7 C 82 % 995,6 hPa 0,0 mm 4,7 km/h (1 Bft) W 270 -0,8 C 4,4 km/h (1 Bft)
21.11.2015 15:40 1,9 C 1,8 C 82 % 995,6 hPa 0,0 mm 3,1 km/h (1 Bft) W 270 -0,8 C 0,0 km/h (0 Bft)
21.11.2015 15:45 1,9 C 1,8 C 82 % 995,6 hPa 0,0 mm 2,1 km/h (1 Bft) W-SW 247 -0,8 C 3,1 km/h (1 Bft)
21.11.2015 15:50 1,8 C 1,7 C 82 % 995,6 hPa 0,0 mm 1,3 km/h (1 Bft) W-SW 247 -0,9 C 0,0 km/h (0 Bft)
21.11.2015 15:55 1,7 C 1,6 C 82 % 995,6 hPa 0,0 mm 0,3 km/h (0 Bft) W-SW 247 -1,0 C 0,0 km/h (0 Bft)
21.11.2015 16:00 1,6 C 1,4 C 82 % 995,6 hPa 0,0 mm 0,0 km/h (0 Bft) W-SW 247 -1,1 C 0,0 km/h (0 Bft)
21.11.2015 16:06 1,5 C 1,3 C 82 % 995,6 hPa 0,0 mm 0,0 km/h (0 Bft) W-SW 247 -1,2 C 0,0 km/h (0 Bft)
21.11.2015 16:10 1,3 C 1,1 C 82 % 995,3 hPa 0,0 mm 0,0 km/h (0 Bft) W-SW 247 -1,4 C 0,0 km/h (0 Bft)
21.11.2015 16:15 1,1 C 0,8 C 82 % 995,3 hPa 0,0 mm 0,0 km/h (0 Bft) S 180 -1,6 C 0,0 km/h (0 Bft)
21.11.2015 16:20 0,9 C 0,5 C 84 % 995,3 hPa 0,0 mm 1,3 km/h (1 Bft) SO 135 -1,5 C 3,6 km/h (1 Bft)
21.11.2015 16:25 0,7 C 0,3 C 84 % 995,3 hPa 0,0 mm 1,8 km/h (1 Bft) SO 135 -1,7 C 0,0 km/h (0 Bft)
21.11.2015 16:30 0,6 C 0,1 C 85 % 995,2 hPa 0,0 mm 2,3 km/h (1 Bft) SO 135 -1,6 C 4,1 km/h (1 Bft)
21.11.2015 16:35 0,6 C 0,1 C 86 % 995,2 hPa 0,0 mm 2,8 km/h (1 Bft) S-SO 157 -1,5 C 2,8 km/h (1 Bft)
21.11.2015 16:40 0,4 C -0,1 C 86 % 995,2 hPa 0,0 mm 2,6 km/h (1 Bft) SO 135 -1,7 C 3,4 km/h (1 Bft)
21.11.2015 16:45 0,3 C -0,2 C 86 % 995,2 hPa 0,0 mm 1,6 km/h (1 Bft) S-SO 157 -1,8 C 0,0 km/h (0 Bft)
21.11.2015 16:48 0,2 C -0,3 C 86 % 995,2 hPa 0,0 mm 1,0 km/h (0 Bft) S-SO 157 -1,9 C 2,8 km/h (1 Bft)
21.11.2015 16:50 0,2 C -0,3 C 86 % 995,2 hPa 0,0 mm 1,0 km/h (0 Bft) S-SO 157 -1,9 C 2,8 km/h (1 Bft)
21.11.2015 16:55 0,2 C -0,3 C 86 % 995,2 hPa 0,0 mm 0,8 km/h (0 Bft) S-SO 157 -1,9 C 0,0 km/h (0 Bft)
21.11.2015 17:01 0,2 C -0,3 C 87 % 995,2 hPa 0,0 mm 0,3 km/h (0 Bft) O-SO 112 -1,7 C 0,0 km/h (0 Bft)
21.11.2015 17:05 0,2 C -0,3 C 87 % 995,2 hPa 0,0 mm 0,0 km/h (0 Bft) O-SO 112 -1,7 C 0,0 km/h (0 Bft)
21.11.2015 17:10 0,1 C -0,3 C 87 % 995,1 hPa 0,0 mm 0,0 km/h (0 Bft) S 180 -1,8 C 0,0 km/h (0 Bft)
21.11.2015 17:15 0,2 C -0,3 C 87 % 995,1 hPa 0,0 mm 0,0 km/h (0 Bft) S-SO 157 -1,7 C 0,0 km/h (0 Bft)
21.11.2015 17:20 0,2 C -0,2 C 87 % 995,1 hPa 0,0 mm 0,0 km/h (0 Bft) O-SO 112 -1,7 C 0,0 km/h (0 Bft)
21.11.2015 17:25 0,1 C -0,3 C 87 % 995,1 hPa 0,0 mm 0,0 km/h (0 Bft) O-SO 112 -1,8 C 0,0 km/h (0 Bft)
21.11.2015 17:30 0,1 C -0,3 C 87 % 995,2 hPa 0,0 mm 0,0 km/h (0 Bft) S 180 -1,8 C 0,0 km/h (0 Bft)
21.11.2015 17:35 0,1 C -0,3 C 87 % 995,2 hPa 0,0 mm 0,5 km/h (0 Bft) SW 225 -1,8 C 4,4 km/h (1 Bft)
21.11.2015 17:40 0,3 C -0,1 C 87 % 995,2 hPa 0,0 mm 3,4 km/h (1 Bft) SW 225 -1,6 C 6,0 km/h (2 Bft)
21.11.2015 17:45 0,3 C -0,3 C 88 % 995,2 hPa 0,0 mm 5,2 km/h (1 Bft) S 180 -1,4 C 7,8 km/h (2 Bft)
21.11.2015 17:50 0,4 C 0,0 C 88 % 995,1 hPa 0,0 mm 4,7 km/h (1 Bft) SW 225 -1,3 C 4,1 km/h (1 Bft)
21.11.2015 17:55 0,5 C 0,1 C 88 % 995,1 hPa 0,0 mm 3,9 km/h (1 Bft) S 180 -1,3 C 3,9 km/h (1 Bft)
21.11.2015 18:00 0,4 C 0,1 C 88 % 995,1 hPa 0,0 mm 2,3 km/h (1 Bft) W-NW 292 -1,3 C 5,2 km/h (1 Bft)
21.11.2015 18:05 0,3 C 0,0 C 88 % 995,1 hPa 0,0 mm 2,1 km/h (1 Bft) SW 225 -1,4 C 5,2 km/h (1 Bft)
21.11.2015 18:10 0,5 C 0,2 C 88 % 995,1 hPa 0,0 mm 3,4 km/h (1 Bft) W-SW 247 -1,3 C 3,9 km/h (1 Bft)
21.11.2015 18:15 0,5 C 0,2 C 88 % 995,1 hPa 0,0 mm 3,6 km/h (1 Bft) W-SW 247 -1,3 C 4,9 km/h (1 Bft)
21.11.2015 18:20 0,5 C 0,2 C 88 % 995,1 hPa 0,0 mm 4,4 km/h (1 Bft) W 270 -1,3 C 7,3 km/h (2 Bft)
21.11.2015 18:25 0,5 C 0,2 C 88 % 995,1 hPa 0,0 mm 4,4 km/h (1 Bft) W-SW 247 -1,3 C 5,7 km/h (1 Bft)
21.11.2015 18:30 0,4 C 0,2 C 88 % 995,2 hPa 0,0 mm 3,9 km/h (1 Bft) SW 225 -1,3 C 6,2 km/h (2 Bft)
21.11.2015 18:35 0,4 C 0,2 C 88 % 995,2 hPa 0,0 mm 2,8 km/h (1 Bft) W-SW 247 -1,3 C 2,8 km/h (1 Bft)
21.11.2015 18:40 0,3 C 0,1 C 88 % 995,2 hPa 0,0 mm 0,8 km/h (0 Bft) W-NW 292 -1,4 C 0,0 km/h (0 Bft)
21.11.2015 18:45 0,3 C 0,1 C 88 % 995,2 hPa 0,0 mm 0,3 km/h (0 Bft) W 270 -1,4 C 0,0 km/h (0 Bft)
21.11.2015 18:50 0,3 C 0,1 C 88 % 995,4 hPa 0,0 mm 0,3 km/h (0 Bft) W 270 -1,4 C 0,0 km/h (0 Bft)
21.11.2015 18:55 0,3 C 0,1 C 88 % 995,4 hPa 0,0 mm 0,8 km/h (0 Bft) W 270 -1,4 C 3,6 km/h (1 Bft)
21.11.2015 19:00 0,2 C 0,0 C 88 % 995,4 hPa 0,0 mm 0,8 km/h (0 Bft) W 270 -1,5 C 0,0 km/h (0 Bft)
21.11.2015 19:05 0,2 C 0,0 C 88 % 995,4 hPa 0,0 mm 1,3 km/h (1 Bft) W-SW 247 -1,5 C 0,0 km/h (0 Bft)
21.11.2015 19:10 0,2 C 0,0 C 88 % 995,7 hPa 0,0 mm 1,3 km/h (1 Bft) W 270 -1,5 C 2,6 km/h (1 Bft)
21.11.2015 19:15 0,2 C 0,0 C 88 % 995,7 hPa 0,0 mm 1,0 km/h (0 Bft) W-SW 247 -1,5 C 0,0 km/h (0 Bft)
21.11.2015 19:20 0,2 C 0,0 C 88 % 995,7 hPa 0,0 mm 1,8 km/h (1 Bft) W-SW 247 -1,5 C 2,8 km/h (1 Bft)
21.11.2015 19:25 0,2 C 0,0 C 88 % 995,7 hPa 0,0 mm 2,3 km/h (1 Bft) NW 315 -1,5 C 7,3 km/h (2 Bft)
21.11.2015 19:30 0,2 C -0,1 C 89 % 996,0 hPa 0,0 mm 4,1 km/h (1 Bft) NW 315 -1,4 C 9,8 km/h (2 Bft)
21.11.2015 19:35 0,1 C -0,6 C 89 % 996,0 hPa 0,0 mm 7,3 km/h (2 Bft) SW 225 -1,5 C 21,2 km/h (4 Bft)
21.11.2015 19:40 -0,2 C -1,2 C 89 % 996,0 hPa 0,0 mm 10,4 km/h (2 Bft) W 270 -1,8 C 12,9 km/h (3 Bft)
21.11.2015 19:45 -0,3 C -1,2 C 89 % 996,0 hPa 0,0 mm 9,8 km/h (2 Bft) W 270 -1,9 C 15,3 km/h (3 Bft)
21.11.2015 19:51 -0,4 C -1,2 C 89 % 996,6 hPa 0,0 mm 8,5 km/h (2 Bft) W-SW 247 -2,0 C 13,7 km/h (3 Bft)
21.11.2015 19:55 -0,5 C -1,4 C 85 % 996,6 hPa 0,0 mm 9,6 km/h (2 Bft) W 270 -2,7 C 12,9 km/h (3 Bft)
21.11.2015 20:00 -0,5 C -1,5 C 89 % 996,6 hPa 0,0 mm 10,4 km/h (2 Bft) W 270 -2,1 C 16,8 km/h (3 Bft)
21.11.2015 20:05 -0,5 C -1,6 C 89 % 996,6 hPa 0,0 mm 10,4 km/h (2 Bft) W-NW 292 -2,1 C 8,0 km/h (2 Bft)
21.11.2015 20:10 -0,7 C -1,7 C 85 % 996,9 hPa 0,0 mm 10,9 km/h (2 Bft) W-SW 247 -2,9 C 16,8 km/h (3 Bft)
21.11.2015 20:15 -0,8 C -1,8 C 85 % 996,9 hPa 0,0 mm 11,7 km/h (2 Bft) W 270 -3,0 C 18,4 km/h (3 Bft)
21.11.2015 20:20 -0,9 C -1,9 C 85 % 996,9 hPa 0,0 mm 12,2 km/h (2 Bft) W 270 -3,1 C 19,7 km/h (3 Bft)
21.11.2015 20:25 -0,9 C -2,1 C 89 % 996,9 hPa 0,0 mm 12,2 km/h (2 Bft) W-SW 247 -2,5 C 17,9 km/h (3 Bft)
21.11.2015 20:30 -1,0 C -2,1 C 89 % 997,1 hPa 0,0 mm 11,9 km/h (2 Bft) W 270 -2,6 C 14,2 km/h (3 Bft)
21.11.2015 20:35 -1,2 C -2,2 C 85 % 997,1 hPa 0,0 mm 12,2 km/h (2 Bft) W-SW 247 -3,4 C 25,6 km/h (4 Bft)
21.11.2015 20:40 -1,3 C -2,0 C 85 % 997,1 hPa 0,0 mm 12,4 km/h (3 Bft) NW 315 -3,5 C 27,2 km/h (4 Bft)
21.11.2015 20:45 -1,3 C -2,1 C 85 % 997,1 hPa 0,0 mm 14,0 km/h (3 Bft) W 270 -3,5 C 15,3 km/h (3 Bft)
21.11.2015 20:50 -1,4 C -2,2 C 85 % 997,1 hPa 0,0 mm 14,5 km/h (3 Bft) W 270 -3,6 C 34,7 km/h (5 Bft)
21.11.2015 20:55 -1,4 C -2,3 C 85 % 997,1 hPa 0,0 mm 15,3 km/h (3 Bft) W-SW 247 -3,6 C 19,9 km/h (4 Bft)
21.11.2015 21:00 -1,5 C -2,3 C 85 % 997,1 hPa 0,0 mm 14,8 km/h (3 Bft) W 270 -3,7 C 16,3 km/h (3 Bft)
21.11.2015 21:05 -1,5 C -2,7 C 85 % 997,1 hPa 0,0 mm 14,2 km/h (3 Bft) W-SW 247 -3,7 C 33,1 km/h (5 Bft)
21.11.2015 21:10 -1,6 C -2,4 C 85 % 997,4 hPa 0,0 mm 15,5 km/h (3 Bft) SW 225 -3,8 C 36,0 km/h (5 Bft)
21.11.2015 21:15 -1,6 C -2,4 C 84 % 997,4 hPa 0,0 mm 16,8 km/h (3 Bft) W 270 -3,9 C 25,9 km/h (4 Bft)
21.11.2015 21:20 -1,8 C -2,6 C 84 % 997,4 hPa 0,0 mm 15,5 km/h (3 Bft) W 270 -4,1 C 16,3 km/h (3 Bft)
21.11.2015 21:25 -1,8 C -2,6 C 84 % 997,4 hPa 0,0 mm 15,3 km/h (3 Bft) W-SW 247 -4,1 C 16,8 km/h (3 Bft)
21.11.2015 21:30 -1,8 C -2,7 C 84 % 997,8 hPa 0,0 mm 15,0 km/h (3 Bft) W 270 -4,1 C 15,0 km/h (3 Bft)
21.11.2015 21:35 -1,9 C -3,1 C 84 % 997,8 hPa 0,0 mm 14,0 km/h (3 Bft) NW 315 -4,2 C 24,1 km/h (4 Bft)
21.11.2015 21:40 -1,9 C -2,8 C 84 % 999,8 hPa 0,0 mm 12,7 km/h (3 Bft) W 270 -4,2 C 12,7 km/h (3 Bft)
21.11.2015 21:45 -1,9 C -3,1 C 84 % 999,8 hPa 0,0 mm 12,2 km/h (2 Bft) W 270 -4,2 C 15,8 km/h (3 Bft)
21.11.2015 21:47 -1,9 C -3,1 C 84 % 999,8 hPa 0,0 mm 12,2 km/h (2 Bft) W 270 -4,2 C 15,8 km/h (3 Bft)
21.11.2015 21:50 -1,9 C -2,9 C 84 % 1000,1 hPa 0,0 mm 11,4 km/h (2 Bft) S 180 -4,2 C 12,4 km/h (3 Bft)
21.11.2015 21:55 -1,9 C -2,8 C 84 % 1000,1 hPa 0,0 mm 10,1 km/h (2 Bft) W-SW 247 -4,2 C 8,8 km/h (2 Bft)
21.11.2015 22:00 -1,9 C -2,8 C 84 % 1000,1 hPa 0,0 mm 8,8 km/h (2 Bft) W 270 -4,2 C 8,5 km/h (2 Bft)
21.11.2015 22:05 -1,9 C -2,7 C 84 % 1000,1 hPa 0,0 mm 9,1 km/h (2 Bft) W 270 -4,2 C 6,5 km/h (2 Bft)
21.11.2015 22:10 -1,9 C -2,7 C 84 % 1000,1 hPa 0,0 mm 8,8 km/h (2 Bft) W-SW 247 -4,2 C 8,3 km/h (2 Bft)
21.11.2015 22:15 -1,9 C -2,8 C 84 % 1000,1 hPa 0,0 mm 9,1 km/h (2 Bft) W-SW 247 -4,2 C 8,5 km/h (2 Bft)
21.11.2015 22:20 -1,9 C -2,6 C 83 % 1000,1 hPa 0,0 mm 7,3 km/h (2 Bft) W-NW 292 -4,4 C 9,6 km/h (2 Bft)
21.11.2015 22:26 -1,9 C -2,5 C 83 % 1000,1 hPa 0,0 mm 6,2 km/h (2 Bft) W 270 -4,4 C 12,7 km/h (3 Bft)
21.11.2015 22:30 -1,9 C -2,7 C 83 % 1000,0 hPa 0,0 mm 8,0 km/h (2 Bft) W 270 -4,4 C 11,7 km/h (2 Bft)
21.11.2015 22:35 -1,9 C -2,7 C 83 % 1000,0 hPa 0,0 mm 8,0 km/h (2 Bft) W-NW 292 -4,4 C 13,2 km/h (3 Bft)
21.11.2015 22:40 -1,9 C -2,6 C 83 % 1000,0 hPa 0,0 mm 7,8 km/h (2 Bft) W-NW 292 -4,4 C 10,9 km/h (2 Bft)
21.11.2015 22:45 -1,8 C -2,7 C 85 % 1000,0 hPa 0,0 mm 8,0 km/h (2 Bft) NW 315 -4,0 C 14,5 km/h (3 Bft)
21.11.2015 22:50 -1,8 C -2,5 C 85 % 1000,1 hPa 0,0 mm 6,2 km/h (2 Bft) W 270 -4,0 C 11,7 km/h (2 Bft)
21.11.2015 22:55 -1,8 C -2,4 C 85 % 1000,1 hPa 0,0 mm 6,0 km/h (2 Bft) SW 225 -4,0 C 7,3 km/h (2 Bft)
21.11.2015 23:00 -1,8 C -2,3 C 85 % 1000,1 hPa 0,0 mm 5,4 km/h (1 Bft) W-SW 247 -4,0 C 10,4 km/h (2 Bft)
21.11.2015 23:05 -1,8 C -2,3 C 85 % 1000,1 hPa 0,0 mm 5,2 km/h (1 Bft) NW 315 -4,0 C 4,4 km/h (1 Bft)
21.11.2015 23:10 -1,8 C -2,3 C 85 % 999,9 hPa 0,0 mm 5,2 km/h (1 Bft) W-NW 292 -4,0 C 8,3 km/h (2 Bft)
21.11.2015 23:15 -1,8 C -2,3 C 85 % 999,9 hPa 0,0 mm 4,7 km/h (1 Bft) W-SW 247 -4,0 C 6,7 km/h (2 Bft)
21.11.2015 23:20 -1,9 C -2,4 C 85 % 999,9 hPa 0,0 mm 4,9 km/h (1 Bft) W 270 -4,1 C 4,1 km/h (1 Bft)
21.11.2015 23:25 -2,0 C -2,5 C 85 % 999,9 hPa 0,0 mm 4,7 km/h (1 Bft) W-SW 247 -4,2 C 5,4 km/h (1 Bft)
21.11.2015 23:30 -2,0 C -2,4 C 85 % 1000,1 hPa 0,0 mm 4,4 km/h (1 Bft) W 270 -4,2 C 8,8 km/h (2 Bft)
21.11.2015 23:35 -2,0 C -2,4 C 85 % 1000,1 hPa 0,0 mm 4,4 km/h (1 Bft) W-SW 247 -4,2 C 7,0 km/h (2 Bft)
21.11.2015 23:40 -2,1 C -2,5 C 85 % 1000,1 hPa 0,0 mm 4,1 km/h (1 Bft) W-SW 247 -4,3 C 3,1 km/h (1 Bft)
21.11.2015 23:45 -2,1 C -2,4 C 85 % 1000,1 hPa 0,0 mm 3,9 km/h (1 Bft) SW 225 -4,3 C 8,8 km/h (2 Bft)
21.11.2015 23:50 -2,1 C -2,4 C 85 % 1000,3 hPa 0,0 mm 3,6 km/h (1 Bft) W-SW 247 -4,3 C 3,9 km/h (1 Bft)
21.11.2015 23:55 -2,2 C -2,5 C 85 % 1000,3 hPa 0,0 mm 3,4 km/h (1 Bft) W 270 -4,4 C 5,2 km/h (1 Bft)
_ Min-Zeit 23:55 21:47 13:30 18:25 - 17:30 - - 22:40 19:15
Minimum _ -2,2 C -3,1 C 78 % 995,1 hPa - 0,0 km/h (0 Bft) - - -4,4 C 0,0 km/h (0 Bft)
_ Max-Zeit 12:55 13:20 04:46 00:25 00:05 21:15 - - 05:25 21:10
Maximum _ 2,7 C 3,7 C 93 % 1000,8 hPa 1,4 mm 16,8 km/h
W (3 Bft)
- - 0,5 C 36,0 km/h
SW (5 Bft)
Durchschnitt _ 0,7 C 0,4 C 87 % 997,4 hPa #11,7 mm 5,9 km/h (2 Bft) W-SW - -1,2 C 8,0 km/h (2 Bft)